GW7357 Weather Reports


Display with metric or nautical units.
time (UTC)temp
F
wind
direction
speed
MPH
gust
MPH
rain 1hr
in
rain 24hr
in
rain mn
in
humidity
%
barometer
mb
20260505164239 77 63 2.0 4.0 0.00 0.00 0.00 42 1011.8
20260505163737 77 323 2.0 5.0 0.00 0.00 0.00 43 1011.7
20260505163235 78 23 3.0 6.0 0.00 0.00 0.00 43 1011.8
20260505162732 77 32 2.0 3.0 0.00 0.00 0.00 43 1011.8
20260505162229 77 78 2.0 4.0 0.00 0.00 0.00 44 1011.9
20260505161726 77 2 2.0 5.0 0.00 0.00 0.00 44 1011.9
20260505161224 77 52 4.0 5.0 0.00 0.00 0.00 45 1012.2
20260505160721 77 338 0.0 3.0 0.00 0.00 0.00 43 1012.2
20260505160219 76 47 0.0 6.0 0.00 0.00 0.00 43 1012.2
20260505153158 74 59 4.0 6.0 0.00 0.00 0.00 46 1012.5
20260505152654 74 67 6.0 8.0 0.00 0.00 0.00 46 1012.4
20260505152150 74 36 5.0 6.0 0.00 0.00 0.00 46 1012.5
20260505151646 74 58 5.0 7.0 0.00 0.00 0.00 47 1012.5
20260505151143 73 95 4.0 6.0 0.00 0.00 0.00 47 1012.7
20260505150639 73 101 5.0 9.0 0.00 0.00 0.00 47 1012.6
20260505150136 73 62 3.0 5.0 0.00 0.00 0.00 48 1012.7
20260505140605 71 41 5.0 7.0 0.00 0.00 0.00 50 1013.1
20260505125018 70 22 4.0 5.0 0.00 0.00 0.00 52 1012.4
20260505124515 69 98 4.0 7.0 0.00 0.00 0.00 52 1012.6
20260505124011 69 336 4.0 6.0 0.00 0.00 0.00 52 1012.3
20260505123508 69 60 2.0 6.0 0.00 0.00 0.00 53 1012.7
20260505123004 69 52 4.0 6.0 0.00 0.00 0.00 53 1012.6
20260505122501 69 28 3.0 7.0 0.00 0.00 0.00 53 1012.5
20260505121958 68 20 3.0 4.0 0.00 0.00 0.00 54 1012.4
20260505121455 68 94 2.0 6.0 0.00 0.00 0.00 54 1012.5
20260505120951 68 2 2.0 4.0 0.00 0.00 0.00 54 1012.5
20260505120447 68 40 4.0 4.0 0.00 0.00 0.00 54 1012.4
20260505115946 68 28 1.0 4.0 0.00 0.00 0.00 55 1012.3
20260505115443 67 87 3.0 4.0 0.00 0.00 0.00 55 1012.5
20260505114941 67 43 3.0 6.0 0.00 0.00 0.00 55 1012.3
20260505114437 67 82 4.0 7.0 0.00 0.00 0.00 55 1012.4
20260505113934 66 64 3.0 5.0 0.00 0.00 0.00 56 1012.5
20260505113430 66 75 2.0 7.0 0.00 0.00 0.00 57 1012.5
20260505112926 65 75 3.0 5.0 0.00 0.00 0.00 58 1012.7
20260505112424 65 26 2.0 5.0 0.00 0.00 0.00 59 1012.5
20260505111920 65 29 2.0 4.0 0.00 0.00 0.00 59 1012.4
20260505111415 64 55 3.0 5.0 0.00 0.00 0.00 59 1012.7
20260505110911 64 102 2.0 6.0 0.00 0.00 0.00 59 1012.6
20260505110408 64 7 2.0 6.0 0.00 0.00 0.00 59 1012.8
20260505101839 62 96 2.0 6.0 0.00 0.00 0.00 64 1012.4
20260505101334 61 109 2.0 4.0 0.00 0.00 0.00 65 1012.7
20260505100830 61 122 1.0 7.0 0.00 0.00 0.00 65 1012.3
20260505100326 61 53 1.0 4.0 0.00 0.00 0.00 66 1012.2
20260505095822 61 346 2.0 5.0 0.00 0.00 0.00 65 1012.0
20260505095320 61 16 4.0 5.0 0.00 0.00 0.00 65 1012.0
20260505094816 61 97 2.0 5.0 0.00 0.00 0.00 66 1011.7
20260505094313 61 49 3.0 4.0 0.00 0.00 0.00 66 1011.6
20260505093808 61 36 5.0 5.0 0.00 0.00 0.00 65 1011.6
20260505093306 61 25 2.0 3.0 0.00 0.00 0.00 65 1011.8
20260505092802 61 52 3.0 5.0 0.00 0.00 0.00 65 1011.6
20260505092301 61 118 2.0 5.0 0.00 0.00 0.00 65 1011.7
20260505091758 61 95 2.0 4.0 0.00 0.00 0.00 65 1011.8
20260505091256 61 116 3.0 6.0 0.00 0.00 0.00 65 1011.8
20260505090754 61 37 3.0 5.0 0.00 0.00 0.00 65 1011.6
20260505090252 61 61 3.0 6.0 0.00 0.00 0.00 64 1011.7
20260505085749 61 98 3.0 8.0 0.00 0.00 0.00 64 1011.7
20260505085247 61 44 6.0 8.0 0.00 0.00 0.00 65 1011.7
20260505084744 61 100 4.0 7.0 0.00 0.00 0.00 65 1011.6
20260505084244 61 29 3.0 6.0 0.00 0.00 0.00 65 1011.7
20260505083739 60 78 4.0 5.0 0.00 0.00 0.00 66 1011.8
20260505083236 60 64 3.0 5.0 0.00 0.00 0.00 66 1011.6
20260505082732 60 93 2.0 8.0 0.00 0.00 0.00 67 1011.5
20260505082230 60 70 3.0 4.0 0.00 0.00 0.00 67 1011.6
20260505081725 60 107 8.0 8.0 0.00 0.00 0.00 67 1011.6
20260505081223 60 54 4.0 5.0 0.00 0.00 0.00 67 1011.7
20260505080720 60 107 1.0 6.0 0.00 0.00 0.00 67 1011.7
20260505080215 60 357 3.0 5.0 0.00 0.00 0.00 67 1011.6
20260505075711 60 174 1.0 5.0 0.00 0.00 0.00 67 1011.6
20260505075209 60 113 2.0 4.0 0.00 0.00 0.00 67 1011.7
20260505074706 60 39 3.0 6.0 0.00 0.00 0.00 67 1011.7
20260505074203 59 62 2.0 6.0 0.00 0.00 0.00 67 1011.6
20260505073700 59 126 3.0 5.0 0.00 0.00 0.00 68 1011.5
20260505073158 59 50 3.0 5.0 0.00 0.00 0.00 69 1011.6
20260505072654 59 67 2.0 6.0 0.00 0.00 0.00 70 1011.7
20260505072151 59 67 2.0 5.0 0.00 0.00 0.00 70 1011.7
20260505071646 59 45 3.0 5.0 0.00 0.00 0.00 69 1011.6
20260505071144 59 37 3.0 6.0 0.00 0.00 0.00 68 1011.7
20260505070641 59 11 4.0 6.0 0.00 0.00 0.00 68 1011.6
20260505070137 59 87 6.0 6.0 0.00 0.00 0.00 67 1011.6
20260505065633 60 67 5.0 5.0 0.00 0.00 0.00 66 1011.4
20260505065130 60 87 3.0 6.0 0.00 0.00 0.00 66 1011.5
20260505064627 60 117 4.0 5.0 0.00 0.00 0.00 66 1011.6
20260505064125 60 32 0.0 4.0 0.00 0.00 0.00 64 1011.4
20260505063622 60 8 3.0 5.0 0.00 0.00 0.00 63 1011.5
20260505063118 60 80 3.0 6.0 0.00 0.00 0.00 62 1011.8
20260505062615 61 53 4.0 6.0 0.00 0.00 0.00 62 1011.8
20260505062112 61 47 4.0 5.0 0.00 0.00 0.00 62 1011.9
20260505061609 61 38 2.0 6.0 0.00 0.00 0.00 61 1011.8
20260505061108 61 43 3.0 6.0 0.00 0.00 0.00 60 1011.8
20260505060605 61 54 4.0 5.0 0.00 0.00 0.00 60 1011.8
20260505055556 61 31 3.0 6.0 0.00 0.00 0.00 60 1011.8
20260505055053 61 46 4.0 5.0 0.00 0.00 0.00 60 1011.8
20260505054550 62 54 3.0 5.0 0.00 0.00 0.00 59 1011.8
20260505054049 62 0 3.0 5.0 0.00 0.00 0.00 59 1011.9
20260505053545 62 97 4.0 8.0 0.00 0.00 0.00 58 1012.0
20260505053042 62 80 4.0 6.0 0.00 0.00 0.00 58 1011.9
20260505052539 62 42 4.0 7.0 0.00 0.00 0.00 57 1012.0
20260505052037 62 46 4.0 6.0 0.00 0.00 0.00 57 1012.0
20260505051533 63 58 4.0 11.0 0.00 0.00 0.00 56 1012.1
20260505051032 63 36 4.0 9.0 0.00 0.00 0.00 56 1012.2
20260505050529 63 106 6.0 7.0 0.00 0.00 0.00 55 1012.2
20260505041457 63 52 4.0 7.0 0.00 0.00 0.00 53 1012.3
20260505040954 63 83 4.0 9.0 0.00 0.00 0.00 53 1012.4
20260505040452 63 70 7.0 8.0 0.00 0.00 0.00 53 1012.3
20260505035948 63 76 5.0 6.0 0.00 0.00 0.00 53 1012.5
20260505035444 64 95 9.0 10.0 0.00 0.00 0.00 52 1012.4
20260505034942 64 55 6.0 9.0 0.00 0.00 0.00 52 1012.5
20260505034438 64 86 6.0 9.0 0.00 0.00 0.00 51 1012.4
20260505033935 64 61 7.0 7.0 0.00 0.00 0.00 51 1012.6
20260505033432 64 25 7.0 9.0 0.00 0.00 0.00 50 1012.3
20260505032930 64 42 5.0 9.0 0.00 0.00 0.00 50 1012.4
20260505032427 64 58 4.0 7.0 0.00 0.00 0.00 50 1012.3
20260505031923 64 40 4.0 13.0 0.00 0.00 0.00 49 1012.2
20260505031420 64 32 5.0 6.0 0.00 0.00 0.00 48 1012.4
20260505030917 64 87 4.0 7.0 0.00 0.00 0.00 48 1012.5
20260505030413 64 71 4.0 7.0 0.00 0.00 0.00 47 1012.5
20260505025909 64 61 3.0 6.0 0.00 0.00 0.00 47 1012.5
20260505025406 65 73 4.0 7.0 0.00 0.00 0.00 47 1012.7
20260505024905 65 53 5.0 6.0 0.00 0.00 0.00 47 1012.5
20260505024402 65 39 6.0 6.0 0.00 0.00 0.00 47 1012.5
20260505023859 65 33 4.0 8.0 0.00 0.00 0.00 47 1012.6
20260505023356 65 56 5.0 7.0 0.00 0.00 0.00 46 1012.7
20260505022853 65 36 4.0 7.0 0.00 0.00 0.00 46 1012.7
20260505022350 65 289 2.0 6.0 0.00 0.00 0.00 46 1012.7
20260505021848 66 97 2.0 6.0 0.00 0.00 0.00 45 1012.8
20260505021344 65 58 5.0 6.0 0.00 0.00 0.00 46 1012.8
20260505020840 65 45 3.0 5.0 0.00 0.00 0.00 46 1012.8
20260505020335 65 82 5.0 9.0 0.00 0.00 0.00 46 1012.6
20260505015833 66 56 3.0 7.0 0.00 0.00 0.00 46 1012.6
20260505015330 66 55 4.0 6.0 0.00 0.00 0.00 46 1012.6
20260505014827 66 77 4.0 9.0 0.00 0.00 0.00 45 1012.7
20260505014324 66 94 5.0 7.0 0.00 0.00 0.00 45 1012.5
20260505013820 66 28 4.0 6.0 0.00 0.00 0.00 45 1012.7
20260505013318 66 47 4.0 6.0 0.00 0.00 0.00 45 1012.5
20260505012816 66 67 2.0 6.0 0.00 0.00 0.00 46 1012.6
20260505012314 66 86 4.0 7.0 0.00 0.00 0.00 46 1012.3
20260505011809 66 68 6.0 8.0 0.00 0.00 0.00 46 1012.2
20260505011307 66 50 5.0 7.0 0.00 0.00 0.00 47 1012.2
20260505010802 66 47 3.0 6.0 0.00 0.00 0.00 47 1012.2
20260505010258 66 83 5.0 6.0 0.00 0.00 0.00 47 1012.1
20260505005754 66 82 6.0 7.0 0.00 0.00 0.00 48 1012.1
20260505005252 66 40 3.0 7.0 0.00 0.00 0.00 49 1012.0
20260505004749 65 135 5.0 6.0 0.00 0.00 0.00 50 1011.9
20260505004245 65 69 2.0 6.0 0.00 0.00 0.00 51 1011.9
20260505003742 65 24 1.0 5.0 0.00 0.00 0.00 51 1011.8
20260505003240 65 42 4.0 5.0 0.00 0.00 0.00 51 1011.8
20260505002736 65 39 3.0 4.0 0.00 0.00 0.00 51 1011.6
20260505002234 65 21 4.0 5.0 0.00 0.00 0.00 52 1011.6
20260505001731 65 25 0.0 5.0 0.00 0.00 0.00 52 1011.6
20260505001229 65 24 3.0 5.0 0.00 0.00 0.00 52 1011.3
20260505000725 65 50 4.0 7.0 0.00 0.00 0.00 53 1011.3
20260505000223 65 120 3.0 4.0 0.00 0.00 0.00 52 1011.2
20260504234528 65 65 2.0 3.0 0.00 0.00 0.00 53 1011.0
20260504234025 65 65 2.0 3.0 0.00 0.00 0.00 53 1011.0
20260504233520 65 82 1.0 2.0 0.00 0.00 0.00 53 1010.9
20260504233018 65 356 0.0 4.0 0.00 0.00 0.00 52 1011.1
20260504232514 65 348 2.0 3.0 0.00 0.00 0.00 53 1010.8
20260504232012 65 117 1.0 3.0 0.00 0.00 0.00 53 1010.8
20260504231508 66 148 6.0 6.0 0.00 0.00 0.00 52 1010.9
20260504231004 66 83 2.0 4.0 0.00 0.00 0.00 51 1010.6
20260504230501 66 109 3.0 4.0 0.00 0.00 0.00 50 1010.6
20260504230000 66 138 0.0 6.0 0.00 0.00 0.00 49 1010.3
20260504225456 66 141 2.0 6.0 0.00 0.00 0.00 49 1010.5
20260504224953 67 59 4.0 5.0 0.00 0.00 0.00 49 1010.6
20260504224450 67 2 4.0 5.0 0.00 0.00 0.00 49 1010.7
20260504223947 67 69 4.0 8.0 0.00 0.00 0.00 48 1010.7
20260504223443 66 25 4.0 5.0 0.00 0.00 0.00 48 1010.4
20260504222938 66 47 4.0 6.0 0.00 0.00 0.00 48 1010.7
20260504222437 67 76 4.0 6.0 0.00 0.00 0.00 48 1010.7
20260504221934 67 61 4.0 4.0 0.00 0.00 0.00 47 1010.8
20260504221431 67 81 0.0 4.0 0.00 0.00 0.00 47 1010.7
20260504220928 67 91 6.0 6.0 0.00 0.00 0.00 47 1010.9
20260504220425 66 343 2.0 5.0 0.00 0.00 0.00 48 1011.0
20260504215922 66 100 4.0 4.0 0.00 0.00 0.00 48 1011.1
20260504215419 66 128 6.0 8.0 0.00 0.00 0.00 47 1011.0
20260504214915 67 41 2.0 5.0 0.00 0.00 0.00 47 1011.0
20260504214412 67 132 3.0 10.0 0.00 0.00 0.00 47 1011.0
20260504213908 67 118 3.0 8.0 0.00 0.00 0.00 47 1011.2
20260504213404 68 98 4.0 7.0 0.00 0.00 0.00 46 1010.9
20260504212902 68 268 2.0 13.0 0.00 0.00 0.00 45 1011.0
20260504212357 69 103 4.0 6.0 0.00 0.00 0.00 44 1010.9
20260504211855 69 28 3.0 6.0 0.00 0.00 0.00 43 1011.1
20260504211351 69 56 4.0 5.0 0.00 0.00 0.00 42 1010.9
20260504210849 69 85 2.0 7.0 0.00 0.00 0.00 42 1011.0
20260504210346 70 165 2.0 4.0 0.00 0.00 0.00 41 1011.0
20260504205843 70 26 3.0 6.0 0.00 0.00 0.00 36 1011.0
20260504205341 70 41 5.0 6.0 0.00 0.00 0.00 34 1010.8
20260504204838 70 76 2.0 8.0 0.00 0.00 0.00 33 1011.0
20260504204337 70 9 3.0 6.0 0.00 0.00 0.00 33 1010.7
20260504203836 70 10 2.0 7.0 0.00 0.00 0.00 33 1010.9
20260504203332 70 49 5.0 9.0 0.00 0.00 0.00 33 1010.8
20260504202828 71 110 3.0 8.0 0.00 0.00 0.00 32 1010.9
20260504202325 71 10 2.0 10.0 0.00 0.00 0.00 32 1011.0
20260504201822 71 80 4.0 7.0 0.00 0.00 0.00 32 1010.8
20260504201319 71 98 4.0 10.0 0.00 0.00 0.00 32 1010.9
20260504200817 71 26 3.0 6.0 0.00 0.00 0.00 32 1011.1
20260504200313 71 64 5.0 7.0 0.00 0.00 0.00 32 1011.2
20260504195809 71 18 3.0 7.0 0.00 0.00 0.00 31 1011.2
20260504195305 71 144 3.0 9.0 0.00 0.00 0.00 32 1011.2
20260504194802 71 111 5.0 8.0 0.00 0.00 0.00 31 1011.1
20260504194259 71 81 1.0 6.0 0.00 0.00 0.00 31 1011.3
20260504193755 71 121 4.0 10.0 0.00 0.00 0.00 31 1011.4
20260504193252 71 14 2.0 4.0 0.00 0.00 0.00 31 1011.3
20260504192751 71 208 3.0 9.0 0.00 0.00 0.00 32 1011.2
20260504192248 71 73 4.0 12.0 0.00 0.00 0.00 31 1011.5
20260504191747 71 43 3.0 5.0 0.00 0.00 0.00 31 1011.5
20260504191243 70 114 3.0 6.0 0.00 0.00 0.00 32 1011.7
20260504190739 70 78 5.0 9.0 0.00 0.00 0.00 32 1011.6
20260504190235 70 101 7.0 8.0 0.00 0.00 0.00 32 1011.8
20260504185732 70 64 6.0 15.0 0.00 0.00 0.00 31 1011.6
20260504185229 70 113 7.0 10.0 0.00 0.00 0.00 32 1011.9
20260504184725 71 12 4.0 6.0 0.00 0.00 0.00 32 1012.0
20260504184221 71 61 6.0 6.0 0.00 0.00 0.00 31 1012.0
20260504183717 70 81 4.0 6.0 0.00 0.00 0.00 31 1012.2
20260504183214 71 8 4.0 9.0 0.00 0.00 0.00 31 1012.1
20260504182712 70 291 2.0 10.0 0.00 0.00 0.00 32 1012.0
20260504182209 70 46 3.0 5.0 0.00 0.00 0.00 33 1012.0
20260504181707 70 83 3.0 7.0 0.00 0.00 0.00 32 1012.2
20260504181204 70 110 3.0 6.0 0.00 0.00 0.00 31 1012.2
20260504180703 70 3 5.0 7.0 0.00 0.00 0.00 31 1012.3
20260504180201 70 0 4.0 7.0 0.00 0.00 0.00 32 1012.6
20260504175658 69 316 6.0 10.0 0.00 0.00 0.00 31 1012.4
20260504175155 70 284 4.0 12.0 0.00 0.00 0.00 31 1012.7
20260504174653 70 86 3.0 8.0 0.00 0.00 0.00 32 1012.9
20260504174149 69 44 5.0 6.0 0.00 0.00 0.00 32 1012.7
20260504173646 70 291 3.0 9.0 0.00 0.00 0.00 31 1012.6
20260504173144 70 359 2.0 5.0 0.00 0.00 0.00 31 1012.8
20260504172640 70 1 3.0 5.0 0.00 0.00 0.00 32 1012.7
20260504172137 70 77 1.0 5.0 0.00 0.00 0.00 32 1012.9
20260504171633 69 100 5.0 6.0 0.00 0.00 0.00 32 1012.8
20260504171131 69 46 2.0 7.0 0.00 0.00 0.00 32 1012.8
20260504170627 69 299 2.0 6.0 0.00 0.00 0.00 32 1012.7
20260504170125 68 108 6.0 8.0 0.00 0.00 0.00 33 1012.9